E27IHO-13 Weather Reports


time (UTC)temp
C
wind
direction
speed
KPH
gust
KPH
rain 1hr
cm
rain 24hr
cm
rain mn
cm
humidity
%
barometer
mb
20260504172840 23 0 0.0 0.0 0.00 0.00 0.00 99 1012.0
20260504172506 23 0 0.0 0.0 0.00 0.00 0.00 99 1012.0
20260504171944 23 0 0.0 0.0 0.00 0.00 0.00 99 1013.0
20260504171421 23 0 0.0 0.0 0.00 0.00 0.00 99 1013.0
20260504171030 23 0 0.0 0.0 0.00 0.00 0.00 99 1012.0
20260504170500 24 0 0.0 0.0 0.00 0.00 0.00 98 1013.0
20260504160224 27 0 0.0 0.0 0.00 0.00 0.00 80 1012.0
20260504150728 28 0 0.0 0.0 0.00 0.00 0.00 76 1012.0
20260504150206 28 0 0.0 0.0 0.00 0.00 0.00 75 1012.0
20260504140826 28 0 0.0 0.0 0.00 0.00 0.00 76 1011.0
20260504130556 27 0 0.0 0.0 0.00 0.00 0.00 75 1010.0
20260504110625 27 0 0.0 0.0 0.00 0.00 0.00 74 1008.0
20260504100159 28 0 0.0 0.0 0.00 0.00 0.00 69 1008.0
20260504081948 29 0 0.0 0.0 0.00 0.00 0.00 72 1008.0
20260504081426 28 0 0.0 0.0 0.00 0.00 0.00 73 1008.0
20260504081055 28 0 0.0 0.0 0.00 0.00 0.00 75 1008.0
20260504080533 29 0 0.0 0.0 0.00 0.00 0.00 70 1009.0
20260504070109 37 0 0.0 0.0 0.00 0.00 0.00 46 1008.0
20260504060207 36 0 0.0 0.0 0.00 0.00 0.00 48 1009.0
20260504050600 35 0 0.0 0.0 0.00 0.00 0.00 54 1010.0
20260504045516 35 0 0.0 0.0 0.00 0.00 0.00 56 1010.0
20260504044954 35 0 0.0 0.0 0.00 0.00 0.00 54 1010.0
20260504044432 35 0 0.0 0.0 0.00 0.00 0.00 56 1010.0
20260504043849 35 0 0.0 0.0 0.00 0.00 0.00 57 1010.0
20260504043327 35 0 0.0 0.0 0.00 0.00 0.00 55 1010.0
20260504042805 35 0 0.0 0.0 0.00 0.00 0.00 56 1010.0
20260504042243 35 0 0.0 0.0 0.00 0.00 0.00 55 1010.0
20260504041721 36 0 0.0 0.0 0.00 0.00 0.00 52 1010.0
20260504041159 35 0 0.0 0.0 0.00 0.00 0.00 53 1010.0
20260504040637 36 0 0.0 0.0 0.00 0.00 0.00 51 1010.0
20260504040115 36 0 0.0 0.0 0.00 0.00 0.00 53 1011.0
20260504035553 36 0 0.0 0.0 0.00 0.00 0.00 52 1011.0
20260504035031 36 0 0.0 0.0 0.00 0.00 0.00 50 1011.0
20260504034509 36 0 0.0 0.0 0.00 0.00 0.00 50 1011.0
20260504033947 37 0 0.0 0.0 0.00 0.00 0.00 49 1011.0
20260504033425 36 0 0.0 0.0 0.00 0.00 0.00 50 1011.0
20260504032903 36 0 0.0 0.0 0.00 0.00 0.00 51 1011.0
20260504032341 36 0 0.0 0.0 0.00 0.00 0.00 52 1011.0
20260504031819 35 0 0.0 0.0 0.00 0.00 0.00 56 1011.0
20260504031256 36 0 0.0 0.0 0.00 0.00 0.00 51 1011.0
20260504030734 36 0 0.0 0.0 0.00 0.00 0.00 51 1011.0
20260504030212 36 0 0.0 0.0 0.00 0.00 0.00 52 1011.0
20260504025650 35 0 0.0 0.0 0.00 0.00 0.00 54 1011.0
20260504025129 36 0 0.0 0.0 0.00 0.00 0.00 50 1011.0
20260504024606 36 0 0.0 0.0 0.00 0.00 0.00 50 1011.0
20260504024044 35 0 0.0 0.0 0.00 0.00 0.00 56 1011.0
20260504014044 35 0 0.0 0.0 0.00 0.00 0.00 55 1011.0
20260504013522 35 0 0.0 0.0 0.00 0.00 0.00 55 1011.0
20260504013000 35 0 0.0 0.0 0.00 0.00 0.00 58 1011.0
20260504012438 34 0 0.0 0.0 0.00 0.00 0.00 59 1011.0
20260504011916 33 0 0.0 0.0 0.00 0.00 0.00 60 1011.0
20260504011552 34 0 0.0 0.0 0.00 0.00 0.00 58 1011.0
20260504011030 35 0 0.0 0.0 0.00 0.00 0.00 58 1011.0
20260504010508 33 0 0.0 0.0 0.00 0.00 0.00 61 1011.0
20260504005946 33 0 0.0 0.0 0.00 0.00 0.00 62 1011.0
20260504005424 33 0 0.0 0.0 0.00 0.00 0.00 63 1011.0
20260504004903 33 0 0.0 0.0 0.00 0.00 0.00 63 1011.0
20260504004334 32 0 0.0 0.0 0.00 0.00 0.00 64 1011.0
20260504003812 32 0 0.0 0.0 0.00 0.00 0.00 64 1011.0
20260504003250 33 0 0.0 0.0 0.00 0.00 0.00 62 1011.0
20260504002435 33 0 0.0 0.0 0.00 0.00 0.00 62 1010.0
20260504001913 32 0 0.0 0.0 0.00 0.00 0.00 66 1010.0
20260504001351 32 0 0.0 0.0 0.00 0.00 0.00 66 1010.0
20260504001151 32 0 0.0 0.0 0.00 0.00 0.00 66 1010.0
20260504000629 33 0 0.0 0.0 0.00 0.00 0.00 60 1010.0
20260504000454 34 0 0.0 0.0 0.00 0.00 0.00 58 1010.0
20260503235932 32 0 0.0 0.0 0.00 0.00 0.00 63 1010.0
20260503235410 35 0 0.0 0.0 0.00 0.00 0.00 55 1010.0
20260503234848 34 0 0.0 0.0 0.00 0.00 0.00 60 1010.0
20260503234326 31 0 0.0 0.0 0.00 0.00 0.00 67 1010.0
20260503233804 33 0 0.0 0.0 0.00 0.00 0.00 62 1010.0
20260503233243 33 0 0.0 0.0 0.00 0.00 0.00 62 1010.0
20260503232727 32 0 0.0 0.0 0.00 0.00 0.00 66 1010.0
20260503232221 31 0 0.0 0.0 0.00 0.00 0.00 69 1010.0
20260503231639 30 0 0.0 0.0 0.00 0.00 0.00 73 1010.0
20260503231113 30 0 0.0 0.0 0.00 0.00 0.00 73 1010.0
20260503230551 30 0 0.0 0.0 0.00 0.00 0.00 74 1010.0
20260503230029 30 0 0.0 0.0 0.00 0.00 0.00 73 1010.0
20260503225507 30 0 0.0 0.0 0.00 0.00 0.00 74 1010.0
20260503224945 30 0 0.0 0.0 0.00 0.00 0.00 74 1010.0
20260503224423 30 0 0.0 0.0 0.00 0.00 0.00 74 1009.0
20260503223901 30 0 0.0 0.0 0.00 0.00 0.00 74 1009.0
20260503223339 30 0 0.0 0.0 0.00 0.00 0.00 74 1009.0
20260503222817 30 0 0.0 0.0 0.00 0.00 0.00 74 1009.0
20260503222255 30 0 0.0 0.0 0.00 0.00 0.00 74 1009.0
20260503221733 30 0 0.0 0.0 0.00 0.00 0.00 74 1009.0
20260503221211 30 0 0.0 0.0 0.00 0.00 0.00 74 1009.0
20260503220649 30 0 0.0 0.0 0.00 0.00 0.00 74 1009.0
20260503220127 30 0 0.0 0.0 0.00 0.00 0.00 74 1009.0
20260503215605 30 0 0.0 0.0 0.00 0.00 0.00 74 1009.0
20260503215043 30 0 0.0 0.0 0.00 0.00 0.00 74 1009.0
20260503214827 30 0 0.0 0.0 0.00 0.00 0.00 74 1009.0
20260503214305 30 0 0.0 0.0 0.00 0.00 0.00 74 1009.0
20260503213908 30 0 0.0 0.0 0.00 0.00 0.00 74 1009.0
20260503213125 30 0 0.0 0.0 0.00 0.00 0.00 74 1009.0
20260503212603 30 0 0.0 0.0 0.00 0.00 0.00 74 1009.0
20260503212041 30 0 0.0 0.0 0.00 0.00 0.00 74 1009.0
20260503211519 30 0 0.0 0.0 0.00 0.00 0.00 74 1009.0
20260503210957 30 0 0.0 0.0 0.00 0.00 0.00 73 1008.0
20260503210435 30 0 0.0 0.0 0.00 0.00 0.00 73 1008.0
20260503205913 30 0 0.0 0.0 0.00 0.00 0.00 74 1009.0
20260503205325 30 0 0.0 0.0 0.00 0.00 0.00 74 1009.0
20260503204803 30 0 0.0 0.0 0.00 0.00 0.00 74 1009.0
20260503204241 30 0 0.0 0.0 0.00 0.00 0.00 74 1009.0
20260503203719 30 0 0.0 0.0 0.00 0.00 0.00 75 1009.0
20260503203157 30 0 0.0 0.0 0.00 0.00 0.00 75 1009.0
20260503202635 30 0 0.0 0.0 0.00 0.00 0.00 75 1009.0
20260503202113 30 0 0.0 0.0 0.00 0.00 0.00 75 1009.0
20260503201551 30 0 0.0 0.0 0.00 0.00 0.00 75 1009.0
20260503201029 30 0 0.0 0.0 0.00 0.00 0.00 76 1009.0
20260503200507 30 0 0.0 0.0 0.00 0.00 0.00 76 1009.0
20260503195945 30 0 0.0 0.0 0.00 0.00 0.00 75 1009.0
20260503195423 30 0 0.0 0.0 0.00 0.00 0.00 75 1009.0
20260503194901 30 0 0.0 0.0 0.00 0.00 0.00 74 1009.0
20260503194525 30 0 0.0 0.0 0.00 0.00 0.00 75 1009.0
20260503194002 30 0 0.0 0.0 0.00 0.00 0.00 74 1009.0
20260503193440 30 0 0.0 0.0 0.00 0.00 0.00 73 1009.0
20260503192918 30 0 0.0 0.0 0.00 0.00 0.00 72 1009.0
20260503192356 30 0 0.0 0.0 0.00 0.00 0.00 72 1009.0
20260503191834 30 0 0.0 0.0 0.00 0.00 0.00 71 1009.0
20260503191312 30 0 0.0 0.0 0.00 0.00 0.00 71 1009.0
20260503190750 30 0 0.0 0.0 0.00 0.00 0.00 70 1009.0
20260503190426 30 0 0.0 0.0 0.00 0.00 0.00 70 1009.0
20260503185904 31 0 0.0 0.0 0.00 0.00 0.00 69 1009.0
20260503185342 31 0 0.0 0.0 0.00 0.00 0.00 68 1009.0
20260503184820 31 0 0.0 0.0 0.00 0.00 0.00 68 1009.0
20260503184258 31 0 0.0 0.0 0.00 0.00 0.00 69 1009.0
20260503183731 31 0 0.0 0.0 0.00 0.00 0.00 69 1009.0
20260503183209 31 0 0.0 0.0 0.00 0.00 0.00 70 1010.0
20260503182647 31 0 0.0 0.0 0.00 0.00 0.00 69 1010.0
20260503182125 31 0 0.0 0.0 0.00 0.00 0.00 69 1010.0
20260503181603 31 0 0.0 0.0 0.00 0.00 0.00 69 1010.0
20260503181041 31 0 0.0 0.0 0.00 0.00 0.00 69 1010.0
20260503180802 31 0 0.0 0.0 0.00 0.00 0.00 69 1010.0